[[{"header":{"parameterUnit":"m.s-1","parameterCategory":1,"la1":30.2991,"la2":30.254,"lo1":-89.0895,"lo2":-89.0444,"dy":0.0017,"dx":0.0017,"nx":28,"ny":28,"refTime":"2026-01-10T09:00:00:Z","depth":0,"parameterNumber":2,"parameterNumberName":"U-component_of_WINDS"},"data":[0,0,0,0,0,0,0,0,0,0,0,0,0,0,0,0,0,0,0,0,0,0,0,0,0,0,0,0,0,0,0,0,0,0,0,0,0,0,0,0,0,0,0,0,0,0,0,0,0,0,0,0,0,0,0,0,0,0,-3.2447,-3.2448,0,-3.2511,-3.2512,-3.2513,-3.2401,-3.2397,-3.2394,-3.239,-3.2459,-3.2464,-3.2469,0,0,0,0,0,0,0,0,0,0,0,0,0,-3.223,-3.2235,-3.2447,-3.2448,-3.2449,-3.2511,-3.2512,-3.2513,-3.2402,-3.2397,-3.2393,-3.2388,-3.2457,-3.2463,-3.247,0,0,0,0,0,0,0,0,0,0,0,0,0,-3.2312,-3.2236,-3.2447,-3.2401,-3.2397,-3.2511,-3.2512,-3.2513,-3.2403,-3.2397,-3.2391,-3.2386,-3.2455,-3.2463,-3.247,-3.2633,0,0,-3.2495,-3.2498,0,0,0,0,0,0,0,0,-3.2308,-3.232,-3.2407,-3.2404,-3.24,-3.2442,-3.246,-3.2553,-3.2404,-3.2401,-3.239,-3.2383,-3.2458,-3.2465,-3.249,-3.2636,-3.2639,-3.2496,-3.25,-3.2504,-3.2506,0,0,0,0,0,0,0,-3.2302,-3.2317,-3.2472,-3.2408,-3.2404,-3.2377,-3.2383,-3.2478,-3.246,-3.2401,-3.2393,-3.2402,-3.2455,-3.2482,-3.2491,-3.264,-3.2495,-3.2503,-3.2507,-3.2511,-3.2923,-3.2929,0,0,0,0,0,0,-3.2302,-3.2313,-3.247,-3.2474,-3.2339,-3.2386,-3.2392,-3.2435,-3.2459,-3.2457,-3.2406,-3.2396,-3.2472,-3.2481,-3.2493,-3.2685,-3.2504,-3.2511,-3.2516,-3.2917,-3.2924,-3.2931,0,0,0,0,0,0,-3.2298,-3.2317,-3.2468,-3.2392,-3.2409,-3.2395,-3.2444,-3.2439,-3.2466,-3.2463,-3.246,-3.2437,-3.2467,-3.2481,-3.2599,-3.2686,-3.2515,-3.2522,-3.2909,-3.2919,-3.2927,-3.3071,0,0,0,0,0,0,-3.2292,-3.2316,-3.2378,-3.2394,-3.2413,-3.2573,-3.245,-3.2444,-3.248,-3.2467,-3.2491,-3.249,-3.2464,-3.2587,-3.2607,-3.2694,-3.2529,-3.2902,-3.2914,-3.2925,-3.3058,-3.3084,-3.3106,0,0,0,0,0,-3.2285,-3.2416,-3.2381,-3.2401,-3.249,-3.2578,-3.2589,-3.2556,-3.2487,-3.2549,-3.2547,-3.2489,-3.2673,-3.26,-3.2621,-3.2712,-3.2896,-3.291,-3.2924,-3.3048,-3.3079,-3.3105,0,0,0,0,0,0,-3.2412,-3.2418,-3.2379,-3.252,-3.2549,-3.2559,-3.2636,-3.259,-3.264,-3.2626,-3.2583,-3.259,-3.2716,-3.2725,-3.2645,-3.287,-3.2773,-3.2792,-3.286,-3.289,-3.2913,-3.2909,-3.2535,0,0,0,0,0,-3.2457,-3.2527,-3.2528,-3.2652,-3.2669,-3.265,-3.2688,-3.2659,-3.2688,-3.27,-3.2707,-3.2738,-3.2802,-3.2846,-3.2905,-3.3058,-3.3062,-3.3131,-3.3154,-3.3174,-3.3191,-3.3273,-3.3303,-3.2976,-3.2976,-3.2976,0,0,-3.255,-3.2561,-3.2609,-3.2678,-3.2698,-3.2773,-3.2662,-3.2746,-3.2801,-3.2713,-3.2825,-3.2831,-3.2862,-3.2998,-3.3058,-3.301,-3.3282,-3.3191,-3.3207,-3.3214,-3.329,-3.3321,-3.3349,-3.2986,-3.2984,-3.2982,0,0,-3.2757,-3.2773,-3.2877,-3.2899,-3.2929,-3.2915,-3.2941,-3.2958,-3.2958,-3.3068,-3.3004,-3.3069,-3.3181,-3.3206,-3.3234,-3.3449,-3.3398,-3.3469,-3.3594,-3.3674,-3.37,-3.3722,-3.38,-3.3828,-3.3486,-3.3487,-3.3487,0,-3.2869,-3.2979,-3.2938,-3.3026,-3.3059,-3.2981,-3.3087,-3.311,-3.3159,-3.3184,-3.3128,-3.3266,-3.3282,-3.3422,-3.3475,-3.3499,-3.3527,-3.3468,-3.3699,-3.3721,-3.3742,-3.3816,-3.3845,-3.3495,-3.3494,-3.3493,-3.3492,0,-3.3115,-3.3192,-3.3273,-3.3321,-3.3362,-3.3459,-3.3434,-3.348,-3.3448,-3.344,-3.3554,-3.3569,-3.363,-3.3661,-3.3631,-3.3798,-3.3767,-3.3706,-3.3608,-3.3783,-3.3851,-3.3879,-3.3507,-3.3504,-3.3502,-3.35,0,0,-3.3408,-3.343,-3.346,-3.3481,-3.3508,-3.3567,-3.366,-3.3718,-3.376,-3.3795,-3.3873,-3.3968,-3.3912,-3.3943,-3.3914,-3.3984,-3.4154,-3.3914,-3.3914,-3.396,-3.434,-3.4387,-3.4421,-3.4119,-3.4125,-3.4129,-3.4338,0,-3.3615,-3.3775,-3.374,-3.3897,-3.3968,-3.3894,-3.3975,-3.4001,-3.3996,-3.4055,-3.4049,-3.4118,-3.4038,-3.4056,-3.4122,-3.412,-3.4231,-3.4104,-3.4193,-3.4196,-3.4189,-3.4456,-3.4506,-3.4703,-3.4364,-3.4369,-3.4372,0,-3.3878,-3.3923,-3.4087,-3.4102,-3.413,-3.4204,-3.4254,-3.4311,-3.4339,-3.433,-3.4364,-3.4321,-3.4414,-3.4313,-3.444,-3.4355,-3.4389,-3.4393,-3.44,-3.4408,-3.4296,-3.4474,-3.4765,-3.4795,-3.4414,-3.441,-3.4407,0,-3.4077,-3.4177,-3.4289,-3.4308,-3.4328,-3.4381,-3.4392,-3.4413,-3.445,-3.4494,-3.4518,-3.4572,-3.4603,-3.4646,-3.4619,-3.4548,-3.4752,-3.4648,-3.4748,-3.4749,-3.4796,-3.4794,-3.5099,-3.4815,-3.4815,-3.4814,-3.4814,0,-3.4313,-3.4417,-3.4378,-3.4447,-3.4561,-3.4519,-3.4633,-3.4635,-3.4655,-3.4723,-3.4662,-3.4728,-3.4687,-3.4749,-3.4729,-3.4838,-3.4852,-3.4848,-3.4841,-3.4854,-3.4855,-3.4877,-3.4864,-3.4822,-3.482,-3.4819,-3.4818,0,-3.4555,-3.4533,-3.4649,-3.4657,-3.4662,-3.4746,-3.4753,-3.4817,-3.4806,-3.4893,-3.4911,-3.4895,-3.4965,-3.4942,-3.5017,-3.5003,-3.5142,-3.5117,-3.5133,-3.5128,-3.5229,-3.5221,-3.5561,-3.5603,-3.5291,-3.5294,-3.5297,0,-3.4708,-3.4786,-3.4802,-3.4842,-3.4857,-3.4924,-3.4961,-3.4922,-3.4963,-3.4999,-3.506,-3.5124,-3.5173,-3.5288,-3.5284,-3.5341,-3.5318,-3.5433,-3.5327,-3.5337,-3.5322,-3.5318,-3.5326,-3.5456,-3.5459,-3.5462,-3.5464,0,-3.4982,-3.4967,-3.5022,-3.5074,-3.5119,-3.5158,-3.5192,-3.5229,-3.5192,-3.5242,-3.5312,-3.535,-3.5426,-3.5491,-3.5542,-3.5553,-3.5504,-3.5497,-3.5524,-3.5539,-3.5545,-3.5544,-3.5193,-3.5491,-3.5488,-3.5486,-3.5485,-3.5484,-3.5185,-3.5251,-3.5272,-3.5335,-3.5356,-3.5389,-3.5449,-3.5445,-3.5503,-3.5561,-3.5535,-3.5616,-3.564,-3.5704,-3.5722,-3.5785,-3.5741,-3.5779,-3.5789,-3.5799,-3.5813,-3.5534,-3.5794,-3.5793,-3.5793,-3.5792,-3.5791,0,-3.5457,-3.5466,-3.5525,-3.5573,-3.5624,-3.557,-3.5604,-3.565,-3.5722,-3.5748,-3.5797,-3.5878,-3.594,-3.5939,-3.5997,-3.6048,-3.6027,-3.6065,-3.6062,-3.6065,-3.5849,-3.5821,-3.6081,-3.6081,-3.6081,-3.6081,-3.6081,-3.6081,-3.5605,-3.5713,-3.5701,-3.5819,-3.5827,-3.5906,-3.593,-3.596,-3.598,-3.6072,-3.6123,-3.6122,-3.6138,-3.6196,-3.625,-3.6248,-3.6273,-3.6321,-3.6311,-3.6109,-3.608,-3.6053,-3.6026,-3.6326,-3.6326,-3.6522,-3.6523,-3.6525]},{"header":{"parameterUnit":"m.s-1","parameterCategory":1,"la1":30.2991,"la2":30.254,"lo1":-89.0895,"lo2":-89.0444,"dy":0.0017,"dx":0.0017,"nx":28,"ny":28,"refTime":"2026-01-10T09:00:00:Z","depth":0,"parameterNumber":3,"parameterNumberName":"V-component_of_WINDS"},"data":[0,0,0,0,0,0,0,0,0,0,0,0,0,0,0,0,0,0,0,0,0,0,0,0,0,0,0,0,0,0,0,0,0,0,0,0,0,0,0,0,0,0,0,0,0,0,0,0,0,0,0,0,0,0,0,0,0,0,-6.7327,-6.7328,0,-6.7425,-6.7426,-6.7427,-6.733,-6.7326,-6.7323,-6.7319,-6.7414,-6.742,-6.7426,0,0,0,0,0,0,0,0,0,0,0,0,0,-6.7051,-6.7056,-6.7327,-6.7328,-6.7329,-6.7424,-6.7426,-6.7427,-6.7331,-6.7326,-6.7322,-6.7317,-6.7412,-6.742,-6.7427,0,0,0,0,0,0,0,0,0,0,0,0,0,-6.7162,-6.7058,-6.7327,-6.7293,-6.7291,-6.7424,-6.7426,-6.7427,-6.7332,-6.7326,-6.732,-6.7315,-6.741,-6.7419,-6.7428,-6.7598,0,0,-6.7456,-6.746,0,0,0,0,0,0,0,0,-6.7156,-6.7172,-6.7297,-6.7295,-6.7293,-6.7359,-6.7363,-6.7485,-6.7333,-6.7316,-6.7319,-6.7312,-6.74,-6.741,-6.7441,-6.7603,-6.7607,-6.7457,-6.7462,-6.7466,-6.7469,0,0,0,0,0,0,0,-6.7148,-6.7167,-6.7365,-6.7298,-6.7297,-6.7271,-6.728,-6.7386,-6.7389,-6.7317,-6.731,-6.7323,-6.7398,-6.7432,-6.7442,-6.7608,-6.7456,-6.7464,-6.747,-6.7474,-6.7912,-6.7918,0,0,0,0,0,0,-6.7145,-6.7161,-6.7362,-6.7368,-6.7209,-6.728,-6.7291,-6.7344,-6.7387,-6.7389,-6.7328,-6.7319,-6.7419,-6.7432,-6.7445,-6.7646,-6.7466,-6.7475,-6.748,-6.7906,-6.7913,-6.792,0,0,0,0,0,0,-6.7139,-6.7164,-6.7358,-6.7263,-6.7286,-6.7291,-6.7351,-6.7349,-6.7382,-6.7396,-6.7395,-6.7363,-6.7415,-6.7432,-6.7561,-6.7648,-6.7479,-6.7487,-6.7899,-6.7908,-6.7917,-6.805,0,0,0,0,0,0,-6.7132,-6.7162,-6.7229,-6.7265,-6.7291,-6.7474,-6.7357,-6.7355,-6.7399,-6.7387,-6.7428,-6.7429,-6.7412,-6.7548,-6.757,-6.7657,-6.7494,-6.7891,-6.7903,-6.7914,-6.8038,-6.8063,-6.8084,0,0,0,0,0,-6.7122,-6.7262,-6.7232,-6.7257,-6.7375,-6.748,-6.7494,-6.7473,-6.7407,-6.7472,-6.748,-6.7428,-6.7635,-6.7562,-6.7586,-6.7677,-6.7885,-6.7899,-6.7913,-6.8027,-6.8058,-6.8083,0,0,0,0,0,0,-6.7234,-6.7266,-6.7234,-6.739,-6.7433,-6.7463,-6.7545,-6.7506,-6.7568,-6.7554,-6.7524,-6.7534,-6.767,-6.7686,-6.7604,-6.7843,-6.7749,-6.7768,-6.7828,-6.7857,-6.7879,-6.7872,-6.7502,0,0,0,0,0,-6.7277,-6.7361,-6.7384,-6.7519,-6.7542,-6.7541,-6.7585,-6.7565,-6.7608,-6.7625,-6.7643,-6.7685,-6.7759,-6.7809,-6.7878,-6.804,-6.8046,-6.8114,-6.8137,-6.8156,-6.8173,-6.8258,-6.8288,-6.7966,-6.7966,-6.7965,0,0,-6.7366,-6.7394,-6.7448,-6.7542,-6.7573,-6.7659,-6.7556,-6.7652,-6.7715,-6.7639,-6.7762,-6.7776,-6.7821,-6.7966,-6.8031,-6.7984,-6.8263,-6.8174,-6.8189,-6.8196,-6.8275,-6.8306,-6.8333,-6.7975,-6.7973,-6.7972,0,0,-6.7572,-6.7602,-6.7717,-6.7751,-6.7799,-6.7797,-6.7825,-6.7861,-6.7868,-6.7991,-6.7935,-6.8009,-6.8138,-6.8171,-6.8205,-6.8423,-6.8376,-6.8446,-6.8566,-6.8649,-6.8675,-6.8697,-6.8773,-6.8801,-6.8463,-6.8463,-6.8464,0,-6.7676,-6.7805,-6.7781,-6.7881,-6.7923,-6.7859,-6.7974,-6.8007,-6.8076,-6.8105,-6.8052,-6.8211,-6.8237,-6.8389,-6.8442,-6.8472,-6.8501,-6.8441,-6.8673,-6.8695,-6.8716,-6.8788,-6.8817,-6.8471,-6.8471,-6.847,-6.8469,0,-6.793,-6.802,-6.8107,-6.8176,-6.8227,-6.8334,-6.8324,-6.8379,-6.8354,-6.8357,-6.8481,-6.851,-6.8583,-6.8617,-6.8594,-6.8765,-6.8734,-6.8678,-6.8582,-6.8755,-6.8822,-6.885,-6.8483,-6.848,-6.8478,-6.8476,0,0,-6.8209,-6.8263,-6.8295,-6.8325,-6.8373,-6.8441,-6.8544,-6.8617,-6.8664,-6.8712,-6.8797,-6.8907,-6.8855,-6.8893,-6.8873,-6.8946,-6.9114,-6.888,-6.888,-6.8921,-6.9302,-6.9344,-6.9376,-6.9084,-6.9089,-6.9093,-6.9298,0,-6.8415,-6.8596,-6.8577,-6.8748,-6.883,-6.877,-6.886,-6.8898,-6.8903,-6.8971,-6.8975,-6.9054,-6.898,-6.9002,-6.9072,-6.9079,-6.919,-6.9064,-6.9159,-6.9163,-6.915,-6.9412,-6.9456,-6.9649,-6.9324,-6.9329,-6.9332,0,-6.8681,-6.874,-6.892,-6.8955,-6.8988,-6.9069,-6.9133,-6.92,-6.9241,-6.9239,-6.9283,-6.9249,-6.9349,-6.9253,-6.939,-6.9305,-6.9342,-6.9352,-6.9358,-6.9366,-6.9258,-6.9425,-6.971,-6.9738,-6.9373,-6.937,-6.9367,0,-6.8865,-6.8989,-6.9113,-6.914,-6.9184,-6.9242,-6.9262,-6.9298,-6.9343,-6.9398,-6.9426,-6.9492,-6.9528,-6.9579,-6.9563,-6.9495,-6.9704,-6.9606,-6.9703,-6.9704,-6.9749,-6.9747,-7.0043,-6.9776,-6.9775,-6.9775,-6.9774,0,-6.9097,-6.9209,-6.9196,-6.9272,-6.9394,-6.937,-6.9492,-6.9505,-6.9537,-6.9612,-6.9564,-6.9636,-6.9611,-6.968,-6.9668,-6.9783,-6.98,-6.9799,-6.9795,-6.9804,-6.9803,-6.9827,-6.9813,-6.9782,-6.9781,-6.9779,-6.9778,0,-6.9323,-6.9319,-6.9449,-6.948,-6.949,-6.958,-6.9605,-6.9675,-6.9675,-6.9772,-6.9792,-6.9793,-6.9872,-6.9862,-6.995,-6.9941,-7.0084,-7.0063,-7.0071,-7.0065,-7.0163,-7.0154,-7.0484,-7.0526,-7.0233,-7.0236,-7.0238,0,-6.9471,-6.9556,-6.9596,-6.9644,-6.9669,-6.9747,-6.9792,-6.9771,-6.9819,-6.9872,-6.9935,-7.001,-7.0069,-7.0198,-7.0205,-7.0271,-7.0251,-7.0363,-7.0261,-7.0266,-7.0251,-7.0246,-7.0254,-7.0382,-7.0386,-7.0389,-7.0391,0,-6.9734,-6.9727,-6.9795,-6.9863,-6.9918,-6.997,-7.0016,-7.0058,-7.004,-7.0097,-7.0178,-7.0224,-7.0314,-7.0388,-7.0451,-7.0469,-7.0427,-7.0423,-7.0449,-7.0458,-7.0458,-7.0458,-7.0124,-7.0415,-7.0413,-7.0411,-7.041,-7.0409,-6.9924,-6.9996,-7.0036,-7.0112,-7.0145,-7.0189,-7.0257,-7.0266,-7.0334,-7.0406,-7.0389,-7.048,-7.0517,-7.0596,-7.0622,-7.0691,-7.065,-7.0688,-7.0697,-7.0706,-7.0717,-7.0448,-7.0702,-7.0701,-7.0701,-7.07,-7.07,0,-7.0183,-7.0205,-7.0276,-7.0343,-7.0403,-7.036,-7.0408,-7.0461,-7.0542,-7.0581,-7.064,-7.0732,-7.0803,-7.0816,-7.0884,-7.0937,-7.0919,-7.0955,-7.095,-7.0955,-7.0751,-7.0721,-7.0968,-7.0968,-7.0968,-7.0968,-7.0968,-7.0968,-7.0325,-7.0444,-7.0442,-7.0576,-7.0596,-7.0687,-7.0718,-7.0758,-7.0788,-7.0894,-7.0954,-7.0962,-7.099,-7.1059,-7.1121,-7.1123,-7.1149,-7.1193,-7.1187,-7.0996,-7.0969,-7.0944,-7.0916,-7.1199,-7.12,-7.1385,-7.1387,-7.1388]}]]